Moses Lake, WA
on Tuesday, February 5, 2013

Tuesday
Previous Day Next Day
Daily Summary
 ActualAverageRecord
Temperature
Mean Temperature °F 33°F  
Max Temperature 44°F 40°F 48°F (1998)
Min Temperature 27°F 26°F -13°F (1985)
Degree Days
Heating Degree Days 29 32  
Month to date heating degree days 152 161  
Since 1 July heating degree days 3506 3835  
Cooling Degree Days 0 0  
Month to date cooling degree days 0 0  
Year to date cooling degree days 0 0  
Moisture
Dew Point 29°F   
Average Humidity 81    
Maximum Humidity 92    
Minimum Humidity 70    
Precipitation
Precipitation 0.00 in 0.04 in 0.01 in (2008)
Month to date precipitation 0.00 0.19  
Year to date precipitation 0.28 1.33  
Wind
Wind Speed 4 mph   
Max Wind Speed 10 mph   
Max Gust Speed 13 mph   
Visibility 3 miles   
Events Fog   

Key: T is trace of precipitation, MM is missing value
Source: NWS Daily Summary
Time(PST)TemperatureDew PointHumidity Pressure Visibility Wind DirectionWind SpeedGust SpeedPrecipitationEvents Conditions
12:52 AM 33.1°F 30.0°F 89% 29.98 in 6.0 miles WNW 4.6 mph - N/A   Overcast
1:24 AM 33.8°F 30.2°F 87% 29.94 in 7.0 miles NW 5.8 mph - N/A   Overcast
1:52 AM 34.0°F 30.9°F 89% 29.96 in 6.0 miles North 5.8 mph - N/A   Overcast
2:52 AM 33.1°F 30.9°F 92% 29.93 in 6.0 miles Calm Calm - N/A   Overcast
3:52 AM 30.9°F 28.0°F 89% 29.91 in 5.0 miles NNE 3.5 mph - N/A   Clear
4:40 AM 30.2°F 26.6°F 86% 29.88 in 2.0 miles West 5.8 mph - N/A   Partly Cloudy
4:44 AM 30.2°F 26.6°F 86% 29.88 in 1.0 miles West 4.6 mph - N/A   Mist
4:52 AM 30.0°F 27.0°F 88% 29.92 in 1.8 miles West 3.5 mph - N/A   Partly Cloudy
4:55 AM 30.2°F 28.4°F 93% 29.88 in 3.0 miles Calm Calm - N/A   Partly Cloudy
5:52 AM 30.9°F 27.0°F 85% 29.89 in 6.0 miles NNE 3.5 mph - N/A   Overcast
6:44 AM 28.4°F 24.8°F 86% 29.85 in 2.5 miles Calm Calm - N/A   Partly Cloudy
6:48 AM 28.4°F 24.8°F 86% 29.85 in 1.0 miles SSE 4.6 mph - N/A   Mist
6:52 AM 28.0°F 25.0°F 88% 29.90 in 0.5 miles South 5.8 mph - N/A Fog Light Freezing Fog
7:00 AM 28.4°F 24.8°F 86% 29.85 in 0.2 miles SSE 6.9 mph - N/A Fog Light Freezing Fog
7:19 AM 28.4°F 26.6°F 93% 29.86 in 0.2 miles SSW 3.5 mph - N/A Fog Light Freezing Fog
7:52 AM 30.0°F 28.0°F 92% 29.90 in 0.2 miles Calm Calm - N/A Fog Light Freezing Fog
8:25 AM 30.2°F 28.4°F 93% 29.88 in 0.2 miles Calm Calm - N/A Fog Light Freezing Fog
8:36 AM 30.2°F 28.4°F 93% 29.88 in 1.0 miles SW 3.5 mph - N/A   Mist
8:44 AM 30.2°F 28.4°F 93% 29.87 in 2.0 miles Calm Calm - N/A   Overcast
8:52 AM 30.9°F 28.9°F 92% 29.91 in 2.0 miles Calm Calm - N/A   Overcast
9:23 AM 32.0°F 30.2°F 93% 29.87 in 2.5 miles Calm Calm - N/A   Overcast
9:52 AM 32.0°F 30.0°F 92% 29.90 in 2.5 miles SSE 3.5 mph - N/A   Overcast
10:11 AM 33.8°F 30.2°F 87% 29.87 in 3.0 miles Calm Calm - N/A   Overcast
10:52 AM 34.0°F 30.9°F 89% 29.91 in 3.0 miles Calm Calm - N/A   Overcast
10:59 AM 33.8°F 30.2°F 87% 29.87 in 5.0 miles Calm Calm - N/A   Overcast
11:41 AM 35.6°F 32.0°F 87% 29.86 in 5.0 miles Calm Calm - N/A   Overcast
11:52 AM 36.0°F 32.0°F 86% 29.89 in 4.0 miles SE 3.5 mph - N/A   Overcast
12:27 PM 37.4°F 32.0°F 81% 29.84 in 6.0 miles SSE 5.8 mph - N/A   Haze
12:52 PM 37.0°F 33.1°F 86% 29.88 in 4.0 miles SE 5.8 mph - N/A   Overcast
1:29 PM 37.4°F 33.8°F 87% 29.84 in 6.0 miles Calm Calm - N/A   Overcast
1:52 PM 39.0°F 33.1°F 79% 29.86 in 6.0 miles Calm Calm - N/A   Haze
2:13 PM 41.0°F 33.8°F 76% 29.84 in 6.0 miles Calm Calm - N/A   Haze
2:52 PM 42.1°F 34.0°F 73% 29.87 in 8.0 miles Calm Calm - N/A   Scattered Clouds
3:52 PM 43.0°F 34.0°F 71% 29.86 in 9.0 miles SE 3.5 mph - N/A   Clear
4:52 PM 37.9°F 32.0°F 79% 29.88 in 6.0 miles North 6.9 mph - N/A   Haze
5:52 PM 35.1°F 30.9°F 85% 29.87 in 6.0 miles North 6.9 mph - N/A   Clear
6:52 PM 33.1°F 30.0°F 89% 29.88 in 5.0 miles North 6.9 mph - N/A   Clear
7:52 PM 32.0°F 28.0°F 85% 29.89 in 5.0 miles Calm Calm - N/A   Clear
8:41 PM 28.4°F 26.6°F 93% 29.86 in 2.5 miles North 6.9 mph - N/A   Partly Cloudy
8:47 PM 28.4°F 26.6°F 93% 29.86 in 1.0 miles North 4.6 mph - N/A   Mist
8:52 PM 28.9°F 25.0°F 85% 29.90 in 0.8 miles North 5.8 mph - N/A   Mist
9:21 PM 28.4°F 24.8°F 86% 29.88 in 0.2 miles Calm Calm - N/A Fog Light Freezing Fog
9:40 PM 26.6°F 24.8°F 93% 29.88 in 0.5 miles Calm Calm - N/A Fog Light Freezing Fog
9:52 PM 28.0°F 25.0°F 88% 29.92 in 1.0 miles NNW 6.9 mph - N/A   Mist
10:02 PM 28.4°F 24.8°F 86% 29.89 in 0.8 miles NNW 4.6 mph - N/A   Mist
10:20 PM 28.4°F 26.6°F 93% 29.90 in 0.2 miles NNW 4.6 mph - N/A Fog Light Freezing Fog
10:35 PM 28.4°F 24.8°F 86% 29.90 in 0.5 miles North 5.8 mph - N/A Fog Light Freezing Fog
10:52 PM 28.0°F 26.1°F 92% 29.94 in 1.0 miles Calm Calm - N/A   Overcast
11:09 PM 26.6°F 24.8°F 93% 29.90 in 2.5 miles SSE 3.5 mph - N/A   Scattered Clouds
11:19 PM 28.4°F 24.8°F 86% 29.90 in 4.0 miles SSE 6.9 mph - N/A   Partly Cloudy
11:52 PM 28.9°F 26.1°F 89% 29.94 in 7.0 miles SSE 6.9 mph - N/A   Clear
Moon Phase
Feb. 05 Feb. 10 Feb. 17 Feb. 25 Mar. 04
Sunrise:07:16 AM (PST) Moon Rise:03:11 AM (PST)2/5
Sunset:05:06 PM (PST) Moon Set:12:20 PM (PST)2/5

Copyright © 2014 The Weather Underground, Inc.